Greenwood, FL

9:29 PM CDT on September 25, 2016 (GMT -0500)
Marianna Municipal

Weather History for KMAI - April, 2013

Change the Weather History Date:

Thursday, April 11, 2013

  Actual Average Record
Temperature  
Mean Temperature 73 °F 65 °F  
Max Temperature 84 °F 78 °F 90 °F (1999)
Min Temperature 61 °F 52 °F 44 °F (2006)
Degree Days  
Heating Degree Days 0    
Month to date heating degree days 32  
Since 1 July heating degree days 1341  
Cooling Degree Days 8    
Month to date cooling degree days 25  
Year to date cooling degree days 96  
Growing Degree Days 22 (Base 50)    
Moisture  
Dew Point 66 °F    
Average Humidity 76    
Maximum Humidity 93    
Minimum Humidity 58    
Precipitation  
Precipitation 0.45 in 0.14 in 1.15 in (2002)
Month to date precipitation 0.87 1.77  
Year to date precipitation 17.72 17.29  
Sea Level Pressure  
Sea Level Pressure 29.83 in    
Wind  
Wind Speed 11 mph (SSE)    
Max Wind Speed 28 mph    
Max Gust Speed 43 mph    
Visibility 9 miles    
Events Rain , Thunderstorm    
T = Trace of Precipitation, MM = Missing Value Source: NWS Daily Summary

Daily Weather History Graph

Daily Weather History Graph

Search for Another Location

Airport or City:

Trip Planner

Search our weather history database for the weather conditions in past years. The results will help you decide how hot, cold, wet, or windy it might be!

Date:

Astronomy

Apr. 11, 2013 Rise Set
Actual Time 6:17 AM CDT 7:06 PM CDT
Civil Twilight 5:52 AM CDT 7:31 PM CDT
Nautical Twilight 5:23 AM CDT 8:00 PM CDT
Astronomical Twilight 4:54 AM CDT 8:29 PM CDT
Moon 6:54 AM CDT (4/11) 8:32 PM CDT (4/11)
Length of Visible Light 13h 38m
Length of Day
12h 49m
New Moon, 2% of the Moon is Illuminated
Apr 11
New Moon
Apr 18
First Quarter
Apr 25
Full
May 2
Last Quarter
May 9
New

Hourly Weather History & Observations

Time (CDT) Temp. Heat Index Dew Point Humidity Pressure Visibility Wind Dir Wind Speed Gust Speed Precip Events Conditions
12:53 AM 63.0 °F - 59.0 °F 87% 29.92 in 10.0 mi Calm Calm - N/A   Clear
1:53 AM 63.0 °F - 59.0 °F 87% 29.91 in 10.0 mi Calm Calm - N/A   Clear
2:53 AM 61.0 °F - 57.9 °F 90% 29.89 in 10.0 mi Calm Calm - N/A   Clear
3:53 AM 62.1 °F - 59.0 °F 90% 29.89 in 10.0 mi Calm Calm - N/A   Clear
4:36 AM 62.6 °F - 60.8 °F 94% 29.90 in 10.0 mi SE 5.8 mph - N/A   Mostly Cloudy
4:53 AM 63.0 °F - 60.1 °F 90% 29.89 in 10.0 mi SE 4.6 mph - N/A   Overcast
5:17 AM 64.4 °F - 60.8 °F 88% 29.89 in 10.0 mi SSE 4.6 mph - N/A   Overcast
5:53 AM 66.0 °F - 62.1 °F 87% 29.89 in 10.0 mi SE 5.8 mph - N/A   Mostly Cloudy
6:18 AM 66.2 °F - 62.6 °F 88% 29.89 in 10.0 mi SSE 5.8 mph - N/A   Mostly Cloudy
6:53 AM 66.9 °F - 62.1 °F 84% 29.89 in 10.0 mi SSE 4.6 mph - N/A   Mostly Cloudy
7:53 AM 70.0 °F - 64.0 °F 81% 29.90 in 10.0 mi SSE 6.9 mph - N/A   Overcast
8:35 AM 73.4 °F - 64.4 °F 73% 29.90 in 10.0 mi Variable 6.9 mph - N/A   Scattered Clouds
8:53 AM 73.9 °F - 66.0 °F 76% 29.90 in 10.0 mi South 13.8 mph 19.6 mph N/A   Clear
9:35 AM 77.0 °F - 66.2 °F 69% 29.91 in 10.0 mi SSE 11.5 mph 23.0 mph N/A   Mostly Cloudy
9:53 AM 77.0 °F - 66.0 °F 69% 29.91 in 10.0 mi South 17.3 mph 27.6 mph N/A   Mostly Cloudy
10:38 AM 78.8 °F - 66.2 °F 65% 29.91 in 10.0 mi South 12.7 mph 20.7 mph N/A   Overcast
10:48 AM 78.8 °F - 66.2 °F 65% 29.91 in 10.0 mi South 15.0 mph 20.7 mph N/A   Overcast
10:53 AM 79.0 °F - 66.9 °F 66% 29.90 in 10.0 mi South 15.0 mph 24.2 mph N/A   Overcast
11:22 AM 80.6 °F 82.7 °F 66.2 °F 61% 29.90 in 10.0 mi South 12.7 mph 23.0 mph N/A   Overcast
12:12 PM 80.6 °F 82.7 °F 66.2 °F 61% 29.88 in 10.0 mi South 18.4 mph 23.0 mph N/A   Overcast
12:53 PM 81.0 °F 83.3 °F 66.9 °F 62% 29.86 in 10.0 mi SSE 15.0 mph 20.7 mph N/A   Mostly Cloudy
1:53 PM 82.9 °F 85.4 °F 66.9 °F 58% 29.81 in 10.0 mi SSE 17.3 mph 27.6 mph N/A   Scattered Clouds
2:53 PM 80.1 °F 82.7 °F 68.0 °F 67% 29.78 in 10.0 mi SSE 15.0 mph 25.3 mph N/A   Mostly Cloudy
3:38 PM 78.8 °F - 69.8 °F 74% 29.78 in 10.0 mi South 13.8 mph 19.6 mph N/A   Overcast
3:53 PM 79.0 °F - 69.1 °F 72% 29.76 in 10.0 mi South 12.7 mph 21.9 mph N/A   Overcast
4:53 PM 78.1 °F - 70.0 °F 76% 29.75 in 10.0 mi South 12.7 mph 20.7 mph N/A   Mostly Cloudy
5:53 PM 77.0 °F - 69.1 °F 76% 29.72 in 10.0 mi SSE 13.8 mph 21.9 mph N/A   Scattered Clouds
6:21 PM 75.2 °F - 69.8 °F 83% 29.72 in 10.0 mi South 13.8 mph 21.9 mph N/A   Mostly Cloudy
6:50 PM 75.2 °F - 69.8 °F 83% 29.70 in 10.0 mi South 13.8 mph 20.7 mph N/A   Mostly Cloudy
6:53 PM 75.0 °F - 69.1 °F 82% 29.70 in 10.0 mi South 13.8 mph 20.7 mph N/A   Mostly Cloudy
7:10 PM 75.2 °F - 69.8 °F 83% 29.70 in 10.0 mi South 15.0 mph 23.0 mph N/A   Mostly Cloudy
7:53 PM 75.0 °F - 69.1 °F 82% 29.71 in 10.0 mi South 16.1 mph 29.9 mph N/A   Overcast
8:53 PM 75.0 °F - 69.1 °F 82% 29.74 in 10.0 mi South 13.8 mph 24.2 mph N/A   Overcast
9:21 PM 75.2 °F - 69.8 °F 83% 29.75 in 10.0 mi South 10.4 mph 23.0 mph N/A   Mostly Cloudy
9:53 PM 73.9 °F - 70.0 °F 87% 29.77 in 7.0 mi South 12.7 mph 20.7 mph 0.02 in Rain Rain
10:01 PM 73.4 °F - 69.8 °F 88% 29.78 in 6.0 mi South 11.5 mph - 0.01 in Rain , Thunderstorm Light Thunderstorms and Rain
10:29 PM 71.6 °F - 71.6 °F 100% 29.81 in 3.0 mi SSW 8.1 mph - 0.14 in Rain , Thunderstorm Rain
10:46 PM 73.4 °F - 71.6 °F 94% 29.83 in 3.0 mi South 23.0 mph 42.6 mph 0.23 in Rain , Thunderstorm Thunderstorms and Rain
10:48 PM 71.6 °F - 69.8 °F 94% 29.81 in 2.0 mi South 24.2 mph 42.6 mph 0.28 in Rain , Thunderstorm Thunderstorms and Rain
10:53 PM 72.0 °F - 68.0 °F 87% 29.79 in 1.5 mi South 17.3 mph 42.6 mph 0.36 in Rain , Thunderstorm Heavy Thunderstorms and Rain
11:03 PM 71.6 °F - 69.8 °F 94% 29.78 in 3.0 mi SSE 12.7 mph 28.8 mph 0.06 in Rain , Thunderstorm Thunderstorms and Rain
11:11 PM 71.6 °F - 69.8 °F 94% 29.77 in 6.0 mi SSE 17.3 mph 24.2 mph 0.06 in Rain Light Rain
11:53 PM 71.1 °F - 66.9 °F 87% 29.75 in 10.0 mi South 16.1 mph 19.6 mph 0.07 in   Mostly Cloudy